Flag for U.S.A. Weather past 2 weeks in Flint, Michigan, U.S.A.

Now
53 °F

Broken clouds.


Feels Like: 46 °F
Forecast: 37 / 51 °F
Wind: 30 mph from Northwest

Location: Bishop International Airport

Current Time: Mar 30, 2015 at 2:17:48 PM

Latest Report: Mar 30, 2015 at 1:53 PM


Visibility: 10 mi

Pressure: 29.88 "Hg

Humidity: 32%

Dew point: 24 °F

Location of FlintLocation

Historic Weather in Flint — Graph

°F

Flint temperature yesterday

Maximum temperature yesterday: 45 °F (at 2:53 PM)
Minimum temperature yesterday: 23 °F (at 5:53 AM)
Average temperature yesterday: 34 °F

Past Weeks' High & Low Weather Summary

 TemperatureHumidityPressure
High66 °F (Mar 16, 5:53 PM)89% (Mar 25, 10:53 AM)30.40 "Hg (Mar 25, 10:53 AM)
Low14 °F (Mar 28, 1:53 AM)23% (Mar 24, 3:53 PM)29.70 "Hg (Mar 16, 7:53 PM)
Average36 °F54%30.13 "Hg
* Reported Mar 15 12:53 PM — Mar 30 12:53 PM, Flint, Weather by CustomWeather, © 2015

Note: Actual official high and low records may vary slightly from our data, if they occured in-between our weather recording intervals... More about our weather records

Advertising

Flint weather history for previous 24 hours

 ConditionsComfort  
Time TempWeatherWind HumidityBarometerVisibility
12:53 PM
Mon, Mar 30
54 °FPartly sunny.30 mph37%29.88 "Hg10 mi
11:53 AM51 °FSunny.23 mph42%29.88 "Hg10 mi
10:53 AM49 °FPassing clouds.23 mph44%29.90 "Hg10 mi
9:53 AM45 °FSunny.17 mph53%29.89 "Hg10 mi
8:53 AM40 °FSunny.16 mph68%29.89 "Hg10 mi
7:53 AM37 °FClear.10 mph73%29.88 "Hg10 mi
6:53 AM38 °FPassing clouds.14 mph73%29.86 "Hg10 mi
5:53 AM39 °FOvercast.16 mph73%29.83 "Hg10 mi
4:53 AM40 °FMostly cloudy.20 mph70%29.80 "Hg10 mi
3:53 AM40 °FPartly cloudy.16 mph73%29.79 "Hg10 mi
2:53 AM40 °FMostly cloudy.18 mph73%29.78 "Hg10 mi
1:53 AM41 °FMostly cloudy.22 mph74%29.75 "Hg10 mi
12:53 AM41 °FOvercast.20 mph76%29.72 "Hg10 mi
11:53 PM
Sun, Mar 29
41 °FOvercast.18 mph82%29.70 "Hg5 mi
10:53 PM40 °FOvercast.14 mph77%29.71 "Hg8 mi
9:53 PM39 °FMostly cloudy.17 mph70%29.73 "Hg10 mi
8:53 PM40 °FOvercast.23 mph55%29.73 "Hg10 mi
7:53 PM38 °FOvercast.14 mph68%29.79 "Hg10 mi
6:53 PM36 °FCloudy.13 mph82%29.84 "Hg6 mi
5:53 PM38 °FLight rain. Mostly cloudy.22 mph63%29.86 "Hg7 mi
4:53 PM40 °FLight rain. More clouds than sun.29 mph47%29.87 "Hg3 mi
3:53 PM44 °FPartly sunny.23 mph32%29.87 "Hg10 mi
2:53 PM45 °FSunny.24 mph30%29.95 "Hg10 mi
Weather by CustomWeather, © 2015

See weather overviewHow to use our weather pages